This is the latest recevied weather packets stored in our database for station/object N0QV. If no packets are shown the sender has not sent any weather packets the latest 10 day(s).
| Time | Temp. | Humidity | Pressure | Rain* | Wind** | Luminosity | Snow |
|---|---|---|---|---|---|---|---|
| 1777421577 | 11.11° C | 48% | 1016.5 hPa | 0 mm | - | 64 W/m² | - |
| 1777421273 | 11.11° C | 49% | 1016.9 hPa | 0 mm | - | 68 W/m² | - |
| 1777420969 | 10.56° C | 50% | 1016.8 hPa | 0 mm | - | 58 W/m² | - |
| 1777420666 | 11.11° C | 50% | 1016.6 hPa | 0 mm | - | 55 W/m² | - |
| 1777420362 | 11.11° C | 49% | 1016.3 hPa | 0 mm | - | 65 W/m² | - |
| 1777420057 | 11.11° C | 49% | 1016.5 hPa | 0 mm | - | 67 W/m² | - |
| 1777419755 | 11.67° C | 48% | 1016.4 hPa | 0 mm | - | 72 W/m² | - |
| 1777419452 | 11.67° C | 47% | 1016.6 hPa | 0 mm | - | 106 W/m² | - |
| 1777419151 | 11.11° C | 47% | 1016.4 hPa | 0 mm | - | 116 W/m² | - |
| 1777418846 | 11.67° C | 46% | 1016.2 hPa | 0 mm | - | 134 W/m² | - |
| 1777418543 | 11.67° C | 45% | 1016.5 hPa | 0 mm | - | 157 W/m² | - |
| 1777418240 | 12.22° C | 44% | 1016.5 hPa | 0 mm | - | 104 W/m² | - |
| 1777417935 | 12.22° C | 46% | 1016.5 hPa | 0 mm | - | 210 W/m² | - |
| 1777417631 | 12.22° C | 46% | 1016.5 hPa | 0 mm | - | 212 W/m² | - |
| 1777417327 | 12.78° C | 44% | 1016.3 hPa | 0 mm | - | 247 W/m² | - |
| 1777417025 | 12.22° C | 44% | 1016.3 hPa | 0 mm | - | 269 W/m² | - |
| 1777416719 | 12.22° C | 42% | 1016.2 hPa | 0 mm | - | 303 W/m² | - |
| 1777416415 | 12.22° C | 45% | 1016.1 hPa | 0 mm | - | 318 W/m² | - |
| 1777416110 | 12.22° C | 46% | 1016 hPa | 0 mm | - | 366 W/m² | - |
| 1777415810 | 11.67° C | 47% | 1016.2 hPa | 0 mm | - | 326 W/m² | - |
| 1777415507 | 11.67° C | 47% | 1016.2 hPa | 0 mm | - | 249 W/m² | - |
| 1777415203 | 11.67° C | 47% | 1016.2 hPa | 0 mm | - | 188 W/m² | - |
| 1777414898 | 11.67° C | 48% | 1016.2 hPa | 0 mm | - | 196 W/m² | - |
| 1777414596 | 11.67° C | 48% | 1016.1 hPa | 0 mm | - | 182 W/m² | - |
| 1777414292 | 11.67° C | 48% | 1016.1 hPa | 0 mm | - | 162 W/m² | - |
* Rain latest hour (hover to see other rain measurements)
** Current wind speed in m/s (hover to see current wind gust speed)